Regional Weather Roundup
Issued by NWS

Home | Current Version | Previous Version | Text Only | Print | Product List | Glossary Off
Versions: 1 2 3 4 5 6 7 8 9 10 11 12 13 14 15 16 17 18 19 20 21 22 23 24 25 26 27 28 29 30 31 32 33 34 35 36 37 38 39 40 41 42 43 44 45 46 47 48 49 50

000
ASUS45 KCYS 210510
RWRWY

WYOMING REGIONAL WEATHER ROUNDUP
NATIONAL WEATHER SERVICE CHEYENNE WY
1100 PM MDT MON OCT 20 2014

NOTE:  "FAIR" INDICATES FEW OR NO CLOUDS BELOW 12,000 FEET
WITH NO SIGNIFICANT WEATHER AND/OR OBSTRUCTIONS TO VISIBILITY.

WYZ001-210600-
YELLOWSTONE NATIONAL PARK

CITY           SKY/WX    TMP DP  RH WIND       PRES   REMARKS
LK YELLOWSTONE   N/A     34  29  82 NW3       30.10F
W YELLOWSTONE  NOT AVBL

$$
WYZ002>013-054>058-071-098>099-210600-
NORTHERN WYOMING

CITY           SKY/WX    TMP DP  RH WIND       PRES   REMARKS
JACKSON        CLEAR     36  30  80 N9        30.03S WCI  29
CODY           CLEAR     52  28  40 CALM      29.91S
GREYBULL       CLEAR     46  27  47 CALM      29.85F
WORLAND        CLEAR     52  28  39 SE7       29.87S
SHERIDAN       CLEAR     40  31  70 SE3       29.85F
BUFFALO        CLEAR     52  22  30 W9        29.91F
GILLETTE       CLEAR     59  32  36 S15       29.88F
HULETT         FAIR      68  36  30 SW12      29.90
NEWCASTLE      FAIR      63  34  34 E12       29.93

$$
WYZ014>020-022>026-101>103-210600-
CENTRAL WYOMING

CITY           SKY/WX    TMP DP  RH WIND       PRES   REMARKS
BIG PINEY      PTCLDY    36  26  67 N3        30.09F
PINEDALE       CLEAR     36  30  80 CALM      30.10F
DUBOIS         FAIR      43  27  52 W13       30.06F
LANDER         CLEAR     60  30  32 W20       29.97S
RIVERTON       CLEAR     54  30  40 W10       29.98S
CASPER         CLEAR     46  32  58 W10       29.99F
DOUGLAS        CLEAR     47  33  58 SE6       29.99F

$$
WYZ021-027>030-104>119-210600-
SOUTHERN WYOMING

CITY           SKY/WX    TMP DP  RH WIND       PRES   REMARKS
EVANSTON       CLEAR     50  33  52 S9        30.08F
KEMMERER       MOCLDY    45  32  61 N3        30.10S
FORT BRIDGER   FAIR      48  33  55 S12       30.11F
ROCK SPRINGS   CLEAR     51  32  48 SE9       30.08F
DIXON          FAIR      42  35  74 CALM      30.15
RAWLINS        PTCLDY    49  33  54 SW8       30.11S
SARATOGA       FAIR      43  34  70 S9        30.14F
LARAMIE        CLEAR     39  33  79 S7        30.15S WCI  34
CHEYENNE       CLEAR     45  34  65 W6        30.09F
TORRINGTON     CLEAR     49  36  61 E6        29.98F
PINE BLUFFS    FAIR      54  36  50 S12       30.06F

$$


USA.gov is the U.S. government's official web portal to all federal, state and local government web resources and services.